SCP
0 0 0 0 0 0 0 0 0 0 0 0 0 0 0 0 0 0 0 0 0 0 0 0 0 0 0 0 0 0 0 0 0 0 0 0 0 0 0 0 0 0 0
0 0 0 0 0 0 0 0 0 0 0 0 0 0 0 0 0 0 0 0 0 0 0 0 0 0 0 0 0 0 0 0 0 0 0 0 0 0 0 0 0 0 0
0 0 0 0 0 0 0 0 0 0 0 0 0 0 0 0 0 0 0 0 0 0 0 0 0 0 0 0 0 0 0 0 0 0 0 0 0 0 0 0 0 0 0
0 0 0 0 0 0 0 0 0 0 0 0 0 0 0 0 0 0 0 0 0 0 0 0 0 0 0 0 0 0 0 0 0 0 0 0 0 0 0 0 0 0 0
0 0 0 0 0 0 0 0 0 0 0 0 0 0 0 0 0 0 0 0 0 0 0 0 0 0 0 0 0 0 0 0 0 0 0 0 0 0 0 0 0 0 0
0 0 0 0 -0 0 0 0 0 0 0 0 0 0 0 0 0 0 0 0 0 0 0 0 0 0 0 0 0 0 0 0 0 0 0 0 0 0 0 0 0 0 0
0 0 0 0 -0 -0 0 0 0 0 0 0 0 0 0 -0 0 0 0 0 0 0 0 0 0 0 0 0 0 0 0 0 0 0 0 0 0 0 0 0 0 0 0
0 0 0 0 0 0 -0 -0 -0 -0 -0 -0 0 0 0 0 0 0 0 0 0 0 0 0 0 0 0 0 0 0 0 0 0 0 0 0 0 0 0 0 0 0 0
0 0 0 0 0 0 0 -0 -0 -0 -0 -0 0 -0 0 0 0 0 0 0 0 0 0 0 0 0 0 0 0 0 0 0 0 0 0 0 0 0 0 0 0 0 0
0 0 0 0 0 0 0 0 0 0 -0 -0 0 -0 0 0 0 0 0 0 0 0 0 0 0 0 0 0 0 0 0 0 0 0 0 0 0 0 0 0 0 0 0
-0 -0 -0 0 0 -0 -0 -0 0 0 0 0 0 -0 0 0 0 0 0 0 0 0 0 0 0 0 0 0 0 0 0 0 0 0 0 0 0 0 0 0 0 0 0
-0 -0 -0 0 0 -0 -0 -0 0 0 0 0 0 0 0 0 0 0 0 0 0 0 0 0 0 0 0 0 0 0 0 0 0 0 0 0 0 0 0 0 0 0 0
0 0 0 0 0 0 -0 0 0 0 0 0 0 0 0 0 0 0 0 0 0 0 0 0 0 0 0 0 0 0 0 0 0 0 0 0 0 0 0 0 0 0 0
0 0 0 -0 -0 0 0 0 0 0 -0 0 0 0 0 0 0 0 0 0 0 0 0 0 0 0 0 0 0 0 0 0 0 0 0 0 0 0 0 0 0 0 0
0 0 0 -0 -0 -0 0 0 0 0 0 0 0 0 0 0 0 0 0 0 0 0 0 0 0 -0 0 0 0 0 0 0 0 0 0 0 0 0 0 0 0 0 0
0 0 0 0 0 0 0 0 0 0 0 0 0 0 0 0 0 0 0 0 0 0 0 0 -0 -0 0 0 0 0 0 0 0 0 0 0 0 0 0 0 0 0 0
0 0 0 0 0 0 0 0 0 0 0 0 0 0 0 0 0 0 0 0 0 0 0 0 0 0 0 0 0 0 0 0 0 0 0 0 0 0 0 0 0 0 0
0 0 0 0 0 0 0 0 0 0 0 0 0 0 0 0 0 0 0 0 0 0 0 0 0 0 0 0 0 0 0 0 0 0 0 0 0 0 0 0 0 0 0
0 0 0 0 0 0 0 0 0 0 0 0 0 0 0 0 0 0 0 0 0 0 0 0 0 0 0 0 0 0 0 0 0 0 0 0 0 0 0 0 0 0 0
0 0 0 0 0 0 0 0 0 0 0 0 0 0 0 -0 -0 0 0 0 0 0 0 0 0 0 0 0 0 0 0 0 0 0 0 0 0 0 0 0 0 0 0
0 0 0 0 0 0 0 0 0 0 0 0 0 0 0 0 0 0 0 0 0 0 0 0 0 0 0 0 0 0 0 0 0 0 0 0 0 0 0 0 0 0 0
0 0 0 0 0 0 0 0 0 0 0 -0 -0 0 0 0 0 0 0 0 0 0 0 0 0 0 0 0 0 0 0 0 0 0 0 0 0 0 0 0 0 0 0
0 0 0 0 0 0 0 0 0 0 0 -0 -0 0 0 0 0 -0 -0 0 0 0 0 0 0 0 0 0 0 0 0 0 0 0 0 0 0 0 0 0 0 0 0
0 0 0 0 0 0 0 0 0 0 0 0 -0 -0 0 0 0 -0 -0 0 0 0 0 0 0 0 0 0 0 0 0 0 0 0 0 0 0 0 0 0 0 0 0
0 0 0 0 0 0 0 0 0 0 0 0 -0 -0 0 0 0 0 0 0 0 0 0 0 0 0 0 0 0 0 0 0 0 0 0 0 0 0 0 0 0 0 0
0 0 0 0 0 0 0 0 0 0 0 0 -0 -0 0 0 0 0 0 0 0 0 0 0 0 0 0 0 0 0 0 0 0 0 0 0 0 0 0 0 0 0 0
Wind_Speed
3 3 4 5 5 5 5 5 5 5 4 3 3 2 1 1 2 1 1 2 2 2 3 2 1 1 2 1 1 1 2 1 1 2 2 3 3 2 2 2 2 2 2
3 3 4 4 5 6 5 5 5 5 4 3 3 2 2 1 1 1 1 2 2 2 2 2 1 1 1 2 2 2 1 1 2 1 1 2 3 3 3 2 2 2 2
7 6 5 5 5 5 6 6 5 5 5 5 3 3 3 2 1 1 1 1 2 2 2 2 2 2 1 1 1 2 2 1 1 1 2 1 1 2 2 2 2 2 2
6 5 6 5 6 5 5 5 5 5 4 5 5 5 4 3 3 1 1 1 1 2 2 2 2 1 1 1 1 1 1 2 0 1 1 1 2 1 2 2 2 3 3
6 6 6 6 5 5 5 5 5 4 4 4 5 5 3 2 1 1 2 1 1 1 1 1 1 1 1 1 1 1 1 1 1 1 0 1 1 1 1 3 3 2 2
6 5 4 4 3 3 4 5 5 4 4 5 5 6 5 4 3 2 2 1 1 0 1 1 1 0 0 0 0 0 1 1 1 1 1 1 1 1 1 2 3 3 3
6 6 6 5 5 4 4 5 6 5 5 5 5 5 5 5 5 4 3 3 1 1 1 1 1 1 1 1 1 1 1 1 1 1 1 1 1 1 1 2 2 3 3
6 6 7 6 6 6 5 5 6 5 5 5 5 4 4 3 3 4 3 3 3 2 2 2 2 1 1 1 1 1 1 0 1 1 1 1 2 1 2 2 2 3 3
6 6 6 6 5 5 5 6 6 4 5 5 5 4 4 4 4 3 3 3 2 2 2 2 2 2 1 1 1 1 1 1 1 2 2 2 2 2 2 2 2 2 3
5 5 5 5 5 5 4 4 4 4 3 4 5 4 4 4 4 3 3 3 3 2 2 2 2 2 2 1 1 1 2 2 2 2 2 2 2 2 1 2 2 2 3
6 5 5 4 4 4 4 4 4 3 2 3 3 3 3 3 3 3 4 3 3 3 3 3 2 2 2 2 2 2 2 3 3 3 3 4 3 2 2 2 2 2 3
4 4 3 3 3 4 4 4 4 3 3 3 3 3 3 3 3 3 3 3 3 3 3 3 3 3 3 2 3 3 3 3 4 4 3 4 3 3 2 2 3 3 3
2 2 3 3 4 4 4 4 4 4 3 3 3 3 3 3 3 3 3 3 3 3 3 3 3 3 3 3 3 4 4 4 4 4 4 4 4 4 3 3 3 3 3
3 3 3 3 4 4 4 4 4 3 3 3 3 3 4 4 4 3 3 3 3 3 3 3 4 4 4 4 4 4 4 4 4 5 5 5 5 5 5 4 4 3 3
2 3 4 3 3 3 3 3 3 3 3 3 3 4 4 3 3 3 3 3 3 4 3 3 3 3 3 4 4 4 4 4 4 5 5 6 7 8 7 5 4 4 4
3 3 3 3 3 4 4 4 4 3 3 4 4 3 3 3 4 4 4 4 4 3 3 4 4 4 4 6 7 5 4 4 5 5 5 5 6 8 10 10 9 7 6
3 3 4 4 4 5 5 5 4 3 3 4 4 3 4 4 4 4 4 4 4 4 4 4 4 5 6 8 8 8 5 4 5 5 5 5 5 7 5 7 9 9 11
3 3 3 3 3 3 3 3 3 3 3 4 4 3 4 4 4 4 4 5 4 4 4 5 5 5 6 8 9 8 5 5 5 5 6 6 5 5 5 5 5 6 6
3 3 3 3 2 3 3 3 3 3 3 4 4 4 4 5 5 5 5 4 3 4 4 4 5 5 6 8 9 8 4 4 5 5 5 6 6 9 9 6 5 6 5
2 2 2 1 2 2 3 3 3 4 5 5 5 5 4 5 6 6 5 4 4 4 4 5 5 6 6 8 9 8 3 4 5 4 5 8 9 10 10 6 5 6 6
2 1 1 2 3 2 3 4 4 6 6 5 4 4 4 5 5 5 4 4 4 4 4 5 5 5 7 8 10 10 4 4 4 4 4 5 10 11 10 8 6 8 6
2 1 1 2 3 2 3 4 6 6 4 4 4 5 4 4 4 4 4 4 4 4 4 4 5 4 5 7 8 11 10 8 5 5 4 5 9 11 11 8 8 10 7
3 2 2 3 3 3 3 5 6 4 4 4 4 4 4 4 4 4 4 3 3 4 4 4 5 5 4 5 10 10 11 10 6 5 8 9 10 10 8 9 9 7 3
3 2 2 3 4 4 4 5 5 4 4 4 5 4 4 4 4 3 4 4 4 4 4 5 5 5 4 4 4 4 5 6 5 4 7 9 9 7 6 6 5 3 3
3 3 3 4 6 5 5 5 4 4 4 4 4 4 4 4 4 4 4 5 5 6 6 5 5 5 6 7 8 5 4 4 4 4 3 3 2 3 3 3 3 3 3
3 3 4 5 6 5 5 5 4 4 4 4 4 4 4 3 4 4 4 6 7 9 11 10 8 7 9 10 10 10 9 9 8 5 3 3 4 4 4 4 3 3 4
Wind_Direction
203 171 165 160 152 148 147 146 144 145 134 121 120 115 105 81 62 55 65 90 88 82 84 77 57 60 86 89 78 90 64 38 32 48 13 0 2 20 23 26 40 33 25
185 176 167 161 161 161 161 153 154 155 153 146 145 140 134 122 118 67 39 82 91 84 86 82 67 61 75 72 69 76 76 30 39 83 67 358 350 357 9 17 34 29 28
191 186 178 174 167 170 171 165 165 164 164 149 130 114 88 71 64 45 13 64 102 96 86 82 69 57 76 84 79 84 96 95 8 60 121 140 247 313 329 359 15 17 19
188 179 176 174 178 184 174 164 166 167 169 158 154 153 153 165 188 182 186 145 109 102 94 92 79 64 70 81 75 79 112 127 127 1 43 145 165 182 306 324 352 359 355
186 178 178 178 176 171 167 164 163 171 173 168 162 156 160 166 157 159 156 139 98 97 105 106 95 76 69 83 82 83 99 124 161 184 160 55 45 177 197 278 307 327 321
184 178 171 158 155 155 158 161 164 174 174 168 167 170 174 172 170 179 166 158 140 126 121 120 118 139 163 171 182 153 146 168 175 185 163 172 184 213 205 250 283 297 297
176 175 171 171 170 168 169 168 168 178 180 174 181 183 182 178 186 187 178 171 171 190 211 171 175 204 218 204 190 170 199 192 190 209 211 218 226 215 219 232 270 288 294
181 183 182 180 180 178 176 170 175 183 183 183 190 190 186 182 185 184 178 183 192 201 197 189 196 211 217 213 195 199 235 214 214 240 234 241 249 232 215 213 232 285 290
188 189 185 180 180 179 182 178 175 178 187 190 185 186 192 184 186 185 182 189 198 199 192 191 196 209 212 211 201 219 244 233 234 239 242 247 255 248 236 221 204 218 269
186 191 188 185 184 185 183 173 175 181 185 188 190 187 188 185 184 177 190 194 196 191 190 199 203 215 221 212 204 226 238 231 247 238 240 251 251 250 239 227 231 220 234
190 191 190 186 180 174 170 172 180 176 175 185 182 179 183 181 178 186 198 196 195 193 198 203 205 217 224 223 220 235 236 238 253 250 241 250 244 241 241 235 236 237 229
191 187 181 171 172 178 176 178 181 182 186 184 178 184 181 176 184 200 207 197 198 202 204 204 209 223 226 223 224 238 242 239 246 251 247 253 248 241 238 234 237 241 235
176 176 176 181 191 194 191 189 190 193 186 174 176 182 188 190 201 210 210 206 205 210 210 206 215 226 229 229 231 234 242 242 243 241 242 249 242 247 243 235 237 243 250
185 186 194 203 205 199 194 193 198 195 185 174 181 195 206 206 210 212 210 212 210 213 217 221 225 229 234 236 235 232 240 245 247 242 240 241 236 238 240 242 238 237 244
194 192 197 205 204 200 199 197 198 196 185 179 194 213 217 212 208 209 213 215 217 222 222 225 234 237 238 237 234 234 238 240 247 249 244 243 242 244 246 245 235 227 236
216 208 202 205 209 207 206 202 204 200 183 191 211 219 218 218 216 217 216 216 222 226 225 232 235 240 244 251 253 250 240 237 241 249 251 249 250 252 257 258 252 242 240
224 218 213 214 218 214 206 205 205 192 187 201 213 215 217 223 227 223 218 221 225 226 231 238 238 244 249 256 259 257 252 238 240 242 246 254 253 254 245 255 259 258 257
229 229 224 228 229 219 212 205 197 192 199 211 221 220 219 228 230 225 227 229 225 224 231 239 241 247 254 258 261 263 260 248 244 241 238 243 249 246 246 244 251 253 256
224 227 223 223 227 224 211 194 203 202 208 220 227 227 221 226 227 229 235 233 227 234 237 239 239 245 257 256 259 261 252 251 252 249 243 240 243 252 256 249 249 259 261
229 232 235 222 228 234 193 187 212 213 224 228 230 230 224 227 228 230 235 234 229 237 240 246 242 240 248 254 259 260 248 255 258 253 246 247 250 255 255 243 239 254 259
263 248 236 242 244 229 190 208 221 229 233 232 230 229 227 231 232 233 234 231 234 240 243 250 253 246 247 257 259 260 250 242 253 255 251 247 254 257 256 254 242 250 259
291 273 257 270 267 230 202 228 239 241 234 225 227 232 233 238 237 228 235 229 224 237 248 254 263 258 252 254 259 259 258 254 251 253 252 250 255 257 258 256 251 257 259
266 261 250 268 272 245 216 233 249 243 228 226 232 237 241 243 233 223 228 235 227 232 245 246 257 266 262 258 262 263 264 261 257 253 253 258 261 261 258 255 256 253 237
271 266 263 268 270 260 242 237 245 233 223 232 238 236 235 244 241 228 221 223 225 231 241 244 251 261 263 256 251 252 260 261 262 262 262 264 261 255 255 257 251 229 220
272 261 255 259 263 262 259 256 242 223 227 236 240 239 236 234 241 239 230 229 229 226 233 239 239 245 257 254 252 256 251 243 244 258 264 259 252 241 242 241 234 225 225
264 265 263 263 266 262 259 256 242 223 222 239 241 237 236 235 235 243 260 247 243 251 252 251 253 258 259 267 265 265 267 266 262 262 251 249 244 239 235 237 238 232 230